[[{"header":{"parameterUnit":"m.s-1","parameterCategory":1,"la1":30.2991,"la2":30.254,"lo1":-89.0895,"lo2":-89.0444,"dy":0.0017,"dx":0.0017,"nx":28,"ny":28,"refTime":"2024-04-10T09:00:00:Z","depth":0,"parameterNumber":2,"parameterNumberName":"U-component_of_WINDS"},"data":[0,0,0,0,0,0,0,0,0,0,0,0,0,0,0,0,0,0,0,0,0,0,0,0,0,0,0,0,0,0,0,0,0,0,0,0,0,0,0,0,0,0,0,0,0,0,0,0,0,0,0,0,0,0,0,0,0,0,9.8701,9.8704,0,9.8917,9.892,9.8922,9.8805,9.8799,9.8793,9.8788,9.9012,9.9023,9.9034,0,0,0,0,0,0,0,0,0,0,0,0,0,9.819,9.82,9.8701,9.8704,9.8707,9.8917,9.892,9.8923,9.8806,9.8799,9.8792,9.8785,9.9008,9.9021,9.9035,0,0,0,0,0,0,0,0,0,0,0,0,0,9.841,9.8203,9.8701,9.8674,9.8673,9.8916,9.892,9.8923,9.8807,9.8799,9.879,9.8782,9.9003,9.902,9.9037,9.932,0,0,9.9089,9.9097,0,0,0,0,0,0,0,0,9.8398,9.8429,9.8675,9.8676,9.8676,9.8825,9.8821,9.9056,9.881,9.8757,9.8787,9.8777,9.8957,9.8977,9.9037,9.933,9.934,9.9091,9.9101,9.9109,9.9114,0,0,0,0,0,0,0,9.8382,9.8419,9.8787,9.8679,9.8679,9.8651,9.8673,9.8865,9.8904,9.8761,9.8753,9.878,9.8955,9.9021,9.9042,9.9343,9.9091,9.9106,9.9116,9.9123,9.9877,9.9887,0,0,0,0,0,0,9.8369,9.8407,9.878,9.8793,9.8512,9.8668,9.8692,9.8786,9.8901,9.891,9.8787,9.8773,9.8996,9.9022,9.9049,9.9386,9.9109,9.9125,9.9135,9.9868,9.988,9.989,0,0,0,0,0,0,9.8358,9.8403,9.8771,9.8598,9.8643,9.8686,9.8793,9.8795,9.886,9.8921,9.8928,9.8847,9.899,9.9025,9.9253,9.9392,9.9133,9.9148,9.9856,9.9871,9.9885,10.0064,0,0,0,0,0,0,9.8344,9.84,9.8507,9.8601,9.8652,9.8971,9.8802,9.8806,9.889,9.8874,9.8979,9.8988,9.8986,9.9228,9.927,9.9411,9.9162,9.9844,9.9863,9.988,10.0046,10.0083,10.0115,0,0,0,0,0,9.8326,9.855,9.8513,9.8559,9.8787,9.8979,9.9009,9.9001,9.8902,9.901,9.9049,9.8984,9.9371,9.9252,9.9298,9.9447,9.9835,9.9858,9.9879,10.003,10.0076,10.0114,0,0,0,0,0,0,9.8473,9.8562,9.8522,9.8783,9.8874,9.8959,9.9096,9.9049,9.9171,9.9152,9.9138,9.9163,9.9399,9.9446,9.9312,9.9726,9.9587,9.962,9.9687,9.9731,9.9764,9.9748,9.9176,0,0,0,0,0,9.8535,9.8683,9.8753,9.8977,9.9024,9.9053,9.9136,9.9122,9.9216,9.9255,9.931,9.9405,9.9547,9.9642,9.9776,10.0052,10.0073,10.0178,10.0212,10.024,10.0268,10.0416,10.0463,9.9962,9.9962,9.9961,0,0,9.8666,9.8733,9.8828,9.9008,9.9077,9.923,9.9086,9.9255,9.9369,9.9281,9.9498,9.9543,9.9648,9.9901,10.0015,9.9947,10.0411,10.0268,10.029,10.0303,10.0443,10.0491,10.0533,9.9977,9.9974,9.9972,0,0,9.8983,9.9049,9.9242,9.9314,9.942,9.9437,9.9483,9.9576,9.9601,9.9819,9.9756,9.9892,10.0138,10.0214,10.0286,10.0632,10.0576,10.0676,10.0856,10.1,10.104,10.1075,10.1197,10.1241,10.0704,10.0704,10.0704,0,9.9133,9.9361,9.9347,9.9521,9.9602,9.9528,9.9723,9.9794,9.9939,9.9997,9.9919,10.0225,10.0291,10.056,10.0644,10.0705,10.0757,10.0663,10.1035,10.107,10.1102,10.1219,10.1265,10.0715,10.0714,10.0713,10.0712,0,9.9539,9.9698,9.9842,9.9982,10.0079,10.0263,10.0278,10.0378,10.0356,10.0381,10.0604,10.068,10.0828,10.0891,10.0872,10.1158,10.1112,10.1036,10.0895,10.1162,10.1271,10.1315,10.0732,10.0728,10.0724,10.0721,0,0,9.9955,10.0084,10.0137,10.0199,10.0311,10.0434,10.0614,10.0758,10.0843,10.0946,10.1097,10.1306,10.1235,10.1317,10.1305,10.1432,10.17,10.1339,10.1342,10.1403,10.2018,10.2074,10.2126,10.1664,10.1672,10.1679,10.2009,0,10.0278,10.0592,10.0584,10.0877,10.1023,10.0955,10.1112,10.1198,10.1226,10.1355,10.1387,10.1535,10.1431,10.1479,10.1602,10.1641,10.1823,10.1617,10.1804,10.181,10.1778,10.2183,10.2244,10.2551,10.2052,10.2059,10.2064,0,10.0697,10.0812,10.1118,10.1207,10.1268,10.1409,10.1539,10.1664,10.1759,10.1771,10.1862,10.183,10.2013,10.1868,10.212,10.1981,10.2056,10.2087,10.2099,10.2115,10.1953,10.2209,10.2649,10.2695,10.2131,10.2126,10.2121,0,10.0968,10.12,10.1412,10.1468,10.1577,10.1678,10.1728,10.1814,10.1901,10.2015,10.2071,10.2206,10.228,10.2385,10.2391,10.2285,10.2645,10.2501,10.2659,10.2659,10.2737,10.2732,10.3194,10.2789,10.2788,10.2787,10.2786,0,10.1329,10.1519,10.1535,10.1666,10.1877,10.1867,10.2076,10.2116,10.2194,10.2332,10.2282,10.2412,10.2412,10.2545,10.2551,10.2758,10.2792,10.2806,10.2805,10.281,10.2808,10.2859,10.2837,10.28,10.2797,10.2794,10.2792,0,10.1667,10.1686,10.1913,10.1997,10.2022,10.2174,10.2246,10.237,10.2394,10.2569,10.2609,10.2647,10.2801,10.2817,10.2997,10.3,10.325,10.3227,10.3217,10.3213,10.337,10.3354,10.388,10.3948,10.3499,10.3504,10.3507,0,10.1896,10.204,10.2139,10.2227,10.2282,10.2425,10.2513,10.2509,10.2602,10.2721,10.2831,10.298,10.3098,10.3348,10.3391,10.3528,10.3507,10.3682,10.3527,10.3527,10.3508,10.3499,10.3512,10.3711,10.3716,10.372,10.3724,0,10.23,10.2301,10.2429,10.256,10.2665,10.2769,10.2865,10.2941,10.2948,10.3056,10.3212,10.3304,10.3486,10.3634,10.3768,10.382,10.3774,10.3772,10.3815,10.3821,10.3809,10.3816,10.3297,10.376,10.3756,10.3753,10.3751,10.375,10.2589,10.2713,10.2802,10.2946,10.3018,10.3109,10.3229,10.3268,10.3397,10.3544,10.3534,10.3707,10.3797,10.3973,10.4035,10.4169,10.4111,10.4174,10.419,10.4206,10.4221,10.3789,10.4194,10.4193,10.4192,10.4191,10.419,0,10.2989,10.3042,10.3174,10.331,10.3423,10.3369,10.3473,10.3571,10.3722,10.3811,10.3928,10.4107,10.425,10.4304,10.4444,10.4541,10.4523,10.4578,10.457,10.4583,10.4266,10.4213,10.459,10.459,10.459,10.459,10.459,10.459,10.321,10.3417,10.343,10.3672,10.3724,10.3891,10.3955,10.4038,10.4108,10.431,10.4428,10.4462,10.4537,10.4681,10.481,10.4822,10.4875,10.4939,10.4943,10.4645,10.4605,10.4567,10.4517,10.4951,10.4952,10.5247,10.525,10.5252]},{"header":{"parameterUnit":"m.s-1","parameterCategory":1,"la1":30.2991,"la2":30.254,"lo1":-89.0895,"lo2":-89.0444,"dy":0.0017,"dx":0.0017,"nx":28,"ny":28,"refTime":"2024-04-10T09:00:00:Z","depth":0,"parameterNumber":3,"parameterNumberName":"V-component_of_WINDS"},"data":[0,0,0,0,0,0,0,0,0,0,0,0,0,0,0,0,0,0,0,0,0,0,0,0,0,0,0,0,0,0,0,0,0,0,0,0,0,0,0,0,0,0,0,0,0,0,0,0,0,0,0,0,0,0,0,0,0,0,2.5707,2.5708,0,2.5747,2.5747,2.5747,2.574,2.5739,2.5738,2.5737,2.5776,2.5778,2.5779,0,0,0,0,0,0,0,0,0,0,0,0,0,2.5623,2.5625,2.5707,2.5708,2.5708,2.5746,2.5747,2.5748,2.574,2.5739,2.5738,2.5737,2.5776,2.5778,2.578,0,0,0,0,0,0,0,0,0,0,0,0,0,2.5661,2.5625,2.5707,2.5709,2.571,2.5746,2.5747,2.5748,2.574,2.5739,2.5738,2.5737,2.5775,2.5777,2.578,2.5817,0,0,2.5788,2.5789,0,0,0,0,0,0,0,0,2.5659,2.5664,2.5708,2.5709,2.571,2.5737,2.5731,2.5771,2.574,2.5728,2.5737,2.5736,2.5764,2.5767,2.5777,2.5819,2.582,2.5788,2.5789,2.579,2.5791,0,0,0,0,0,0,0,2.5656,2.5662,2.5723,2.5709,2.571,2.5707,2.5711,2.5739,2.5752,2.5729,2.5729,2.5734,2.5764,2.5774,2.5778,2.5821,2.5788,2.579,2.5792,2.5793,2.5893,2.5894,0,0,0,0,0,0,2.5653,2.566,2.5722,2.5724,2.5681,2.5709,2.5714,2.5729,2.5751,2.5754,2.5735,2.5733,2.5771,2.5775,2.5779,2.5823,2.579,2.5793,2.5794,2.5891,2.5893,2.5894,0,0,0,0,0,0,2.5651,2.5659,2.572,2.5692,2.5699,2.5712,2.5729,2.5731,2.5741,2.5755,2.5757,2.5743,2.577,2.5775,2.5807,2.5824,2.5794,2.5796,2.589,2.5892,2.5893,2.5911,0,0,0,0,0,0,2.5649,2.5658,2.5673,2.5692,2.5701,2.5748,2.573,2.5732,2.5746,2.5744,2.5764,2.5766,2.577,2.5803,2.581,2.5827,2.5798,2.5889,2.5891,2.5893,2.5909,2.5913,2.5916,0,0,0,0,0,2.5646,2.5676,2.5674,2.5681,2.572,2.5749,2.5754,2.5758,2.5747,2.5762,2.577,2.5765,2.5821,2.5807,2.5814,2.5832,2.5888,2.589,2.5893,2.5907,2.5912,2.5916,0,0,0,0,0,0,2.5659,2.5679,2.5676,2.5714,2.573,2.5748,2.5767,2.5764,2.5783,2.5781,2.5784,2.5789,2.5821,2.5829,2.5813,2.5868,2.5853,2.5857,2.5861,2.5866,2.587,2.5867,2.58,0,0,0,0,0,2.5666,2.5689,2.5705,2.5737,2.5745,2.5754,2.5767,2.5769,2.5785,2.5792,2.5803,2.5819,2.5839,2.5853,2.5873,2.591,2.5913,2.5925,2.5929,2.5932,2.5936,2.5954,2.5959,2.5903,2.5902,2.5902,0,0,2.5681,2.5695,2.5709,2.574,2.5752,2.5775,2.576,2.5785,2.5801,2.5796,2.5826,2.5834,2.5852,2.5886,2.5901,2.5894,2.5952,2.5936,2.5938,2.594,2.5957,2.5963,2.5967,2.5904,2.5904,2.5904,0,0,2.5721,2.5734,2.5761,2.5774,2.5793,2.5798,2.5805,2.5823,2.5828,2.5859,2.5854,2.5873,2.591,2.5922,2.5933,2.5974,2.597,2.5981,2.6001,2.6018,2.6023,2.6027,2.6041,2.6046,2.5984,2.5984,2.5984,0,2.5737,2.5772,2.5775,2.58,2.5813,2.5808,2.5835,2.5847,2.5871,2.588,2.5871,2.5916,2.5927,2.5963,2.5973,2.5982,2.5989,2.5979,2.6022,2.6026,2.603,2.6043,2.6048,2.5985,2.5985,2.5985,2.5985,0,2.579,2.5814,2.5833,2.5857,2.5872,2.5897,2.5904,2.5918,2.5918,2.5924,2.5954,2.5968,2.599,2.5999,2.5999,2.6034,2.6029,2.6021,2.6006,2.6036,2.6048,2.6054,2.5987,2.5986,2.5986,2.5986,0,0,2.584,2.5864,2.5871,2.5881,2.59,2.5918,2.5943,2.5965,2.5976,2.5993,2.6013,2.6043,2.6035,2.6048,2.6049,2.6065,2.6095,2.6055,2.6055,2.6061,2.6133,2.6138,2.6144,2.6092,2.6093,2.6094,2.6131,0,2.588,2.5924,2.5927,2.5967,2.5988,2.5983,2.6004,2.6018,2.6024,2.6042,2.6048,2.6069,2.6058,2.6065,2.6081,2.6088,2.6109,2.6085,2.611,2.611,2.6105,2.6151,2.6157,2.6191,2.6136,2.6137,2.6138,0,2.5933,2.5951,2.5992,2.6008,2.6017,2.6036,2.6055,2.6072,2.6087,2.609,2.6103,2.6102,2.6126,2.611,2.6142,2.6126,2.6135,2.614,2.6142,2.6144,2.6126,2.6153,2.6203,2.6208,2.6145,2.6145,2.6144,0,2.5964,2.5998,2.6027,2.6036,2.6054,2.6068,2.6076,2.609,2.6102,2.6118,2.6126,2.6145,2.6155,2.6169,2.6172,2.6161,2.6204,2.6189,2.6206,2.6206,2.6216,2.6215,2.6267,2.6223,2.6223,2.6223,2.6223,0,2.6008,2.6033,2.6041,2.6058,2.6086,2.6089,2.6116,2.6123,2.6135,2.6153,2.615,2.6167,2.617,2.6188,2.619,2.6215,2.622,2.6223,2.6223,2.6223,2.6222,2.6229,2.6226,2.6224,2.6224,2.6224,2.6223,0,2.6047,2.6053,2.6084,2.6099,2.6103,2.6123,2.6135,2.6151,2.6156,2.6179,2.6185,2.6192,2.6212,2.6217,2.6241,2.6242,2.6272,2.6271,2.6267,2.6267,2.6284,2.6282,2.6342,2.6349,2.6301,2.6302,2.6302,0,2.6075,2.6094,2.6111,2.6123,2.6131,2.6151,2.6163,2.6166,2.6179,2.6196,2.621,2.6229,2.6245,2.6277,2.6284,2.6302,2.63,2.632,2.6303,2.6302,2.6299,2.6298,2.6299,2.6323,2.6323,2.6324,2.6324,0,2.6123,2.6125,2.6143,2.6161,2.6176,2.619,2.6204,2.6214,2.6219,2.6233,2.6253,2.6265,2.6289,2.6308,2.6326,2.6333,2.6329,2.6329,2.6334,2.6334,2.6331,2.6332,2.6275,2.6328,2.6328,2.6327,2.6327,2.6327,2.6157,2.6173,2.6187,2.6206,2.6217,2.623,2.6245,2.6252,2.6269,2.6289,2.6289,2.6311,2.6324,2.6347,2.6355,2.6371,2.6365,2.6373,2.6374,2.6376,2.6377,2.6329,2.6375,2.6375,2.6374,2.6374,2.6374,0,2.6204,2.6212,2.623,2.6249,2.6264,2.6259,2.6274,2.6287,2.6306,2.6318,2.6334,2.6356,2.6374,2.6382,2.64,2.6411,2.641,2.6416,2.6414,2.6416,2.6382,2.6376,2.6416,2.6416,2.6416,2.6416,2.6416,2.6416,2.623,2.6257,2.626,2.6291,2.6299,2.632,2.6329,2.634,2.635,2.6375,2.639,2.6395,2.6406,2.6423,2.6439,2.6441,2.6447,2.6454,2.6455,2.6423,2.6419,2.6414,2.6408,2.6455,2.6456,2.6487,2.6487,2.6488]}]]